| time (UTC) | temp C | wind direction | speed KPH | gust KPH | rain 1hr cm | rain 24hr cm | rain mn cm | humidity % | barometer mb |
| 20260510023130 | 14 | 87 | 8.0 | 20.9 | 0.00 | 0.00 | 0.00 | 82 | 1007.3 |
| 20260510021623 | 13 | 129 | 1.6 | 6.4 | 0.00 | 0.00 | 0.00 | 83 | 1005.7 |
| 20260510020144 | 13 | 13 | 1.6 | 4.8 | 0.00 | 0.00 | 0.00 | 83 | 1005.3 |
| 20260510014631 | 13 | 60 | 1.6 | 4.8 | 0.00 | 0.00 | 0.00 | 83 | 1005.3 |
| 20260510013126 | 13 | 333 | 0.0 | 4.8 | 0.00 | 0.00 | 0.00 | 83 | 1005.2 |
| 20260510011624 | 13 | 79 | 0.0 | 0.0 | 0.00 | 0.00 | 0.00 | 83 | 1005.1 |
| 20260510010122 | 13 | 94 | 0.0 | 0.0 | 0.00 | 0.00 | 0.00 | 82 | 1004.9 |
| 20260510004641 | 13 | 77 | 0.0 | 3.2 | 0.00 | 0.00 | 0.00 | 81 | 1004.7 |
| 20260510003158 | 13 | 86 | 0.0 | 3.2 | 0.00 | 0.00 | 0.00 | 79 | 1004.7 |
| 20260510001637 | 14 | 69 | 1.6 | 4.8 | 0.00 | 0.00 | 0.00 | 78 | 1004.7 |
| 20260510000136 | 14 | 338 | 1.6 | 6.4 | 0.00 | 0.00 | 0.00 | 77 | 1004.6 |
| 20260509234631 | 15 | 71 | 1.6 | 4.8 | 0.00 | 0.00 | 0.00 | 76 | 1004.3 |
| 20260509233149 | 15 | 75 | 1.6 | 9.7 | 0.00 | 0.00 | 0.00 | 75 | 1004.4 |
| 20260509231706 | 15 | 333 | 1.6 | 8.0 | 0.00 | 0.00 | 0.00 | 74 | 1004.3 |
| 20260509230134 | 16 | 65 | 0.0 | 4.8 | 0.00 | 0.00 | 0.00 | 72 | 1004.4 |
| 20260509224631 | 17 | 137 | 1.6 | 8.0 | 0.00 | 0.00 | 0.00 | 69 | 1004.4 |
| 20260509223129 | 17 | 50 | 3.2 | 9.7 | 0.00 | 0.00 | 0.00 | 69 | 1004.2 |
| 20260509221627 | 17 | 66 | 1.6 | 8.0 | 0.00 | 0.00 | 0.00 | 68 | 1004.5 |
| 20260509220126 | 17 | 35 | 3.2 | 11.3 | 0.00 | 0.00 | 0.00 | 68 | 1004.6 |
| 20260509214626 | 17 | 26 | 6.4 | 12.9 | 0.00 | 0.00 | 0.00 | 67 | 1004.4 |
| 20260509213138 | 17 | 65 | 8.0 | 14.5 | 0.00 | 0.00 | 0.00 | 67 | 1004.4 |
| 20260509211632 | 17 | 12 | 4.8 | 19.3 | 0.00 | 0.00 | 0.00 | 67 | 1004.6 |
| 20260509210124 | 17 | 37 | 4.8 | 11.3 | 0.00 | 0.00 | 0.00 | 67 | 1004.8 |
| 20260509204638 | 17 | 38 | 6.4 | 14.5 | 0.00 | 0.00 | 0.00 | 66 | 1004.7 |
| 20260509203139 | 17 | 108 | 3.2 | 9.7 | 0.00 | 0.00 | 0.00 | 68 | 1004.8 |
| 20260509201627 | 17 | 87 | 3.2 | 14.5 | 0.00 | 0.00 | 0.00 | 70 | 1005.0 |
| 20260509200129 | 16 | 20 | 1.6 | 12.9 | 0.00 | 0.00 | 0.00 | 70 | 1005.2 |
| 20260509194708 | 17 | 234 | 4.8 | 12.9 | 0.00 | 0.00 | 0.00 | 68 | 1005.3 |
| 20260509193128 | 16 | 45 | 1.6 | 9.7 | 0.00 | 0.00 | 0.00 | 71 | 1005.5 |
| 20260509191635 | 16 | 24 | 3.2 | 9.7 | 0.00 | 0.00 | 0.00 | 73 | 1006.0 |
| 20260509190142 | 15 | 344 | 3.2 | 11.3 | 0.00 | 0.00 | 0.00 | 72 | 1006.2 |
| 20260509184700 | 15 | 110 | 4.8 | 9.7 | 0.00 | 0.00 | 0.00 | 74 | 1006.1 |
| 20260509183207 | 15 | 330 | 1.6 | 11.3 | 0.00 | 0.00 | 0.00 | 77 | 1006.2 |
| 20260509181631 | 13 | 47 | 3.2 | 8.0 | 0.00 | 0.00 | 0.00 | 80 | 1006.3 |
| 20260509180136 | 12 | 162 | 0.0 | 4.8 | 0.00 | 0.00 | 0.00 | 85 | 1006.4 |
| 20260509174632 | 12 | 159 | 1.6 | 3.2 | 0.00 | 0.00 | 0.00 | 86 | 1006.5 |
| 20260509173126 | 11 | 158 | 0.0 | 0.0 | 0.00 | 0.00 | 0.00 | 87 | 1006.5 |
| 20260509171635 | 11 | 159 | 1.6 | 3.2 | 0.00 | 0.00 | 0.00 | 87 | 1006.6 |
| 20260509170132 | 11 | 153 | 0.0 | 0.0 | 0.00 | 0.00 | 0.00 | 88 | 1006.8 |
| 20260509164647 | 11 | 154 | 0.0 | 0.0 | 0.00 | 0.00 | 0.00 | 88 | 1006.8 |
| 20260509163142 | 11 | 154 | 0.0 | 1.6 | 0.00 | 0.00 | 0.00 | 87 | 1006.9 |
| 20260509161656 | 11 | 151 | 1.6 | 3.2 | 0.00 | 0.00 | 0.00 | 87 | 1007.4 |
| 20260509160150 | 11 | 146 | 0.0 | 0.0 | 0.00 | 0.00 | 0.00 | 86 | 1007.7 |
| 20260509154644 | 11 | 146 | 0.0 | 3.2 | 0.00 | 0.00 | 0.00 | 84 | 1007.5 |
| 20260509153130 | 11 | 145 | 0.0 | 0.0 | 0.00 | 0.00 | 0.00 | 84 | 1007.9 |
| 20260509151629 | 11 | 144 | 0.0 | 0.0 | 0.00 | 0.00 | 0.00 | 84 | 1007.9 |
| 20260509150123 | 11 | 145 | 0.0 | 0.0 | 0.00 | 0.00 | 0.00 | 84 | 1008.0 |
| 20260509144635 | 11 | 145 | 0.0 | 1.6 | 0.00 | 0.05 | 0.00 | 83 | 1008.1 |
| 20260509143126 | 10 | 162 | 0.0 | 0.0 | 0.00 | 0.05 | 0.00 | 84 | 1008.0 |
| 20260509141632 | 10 | 168 | 3.2 | 4.8 | 0.00 | 0.05 | 0.00 | 85 | 1008.0 |
| 20260509140124 | 9 | 149 | 0.0 | 1.6 | 0.00 | 0.05 | 0.00 | 85 | 1008.2 |
| 20260509134701 | 8 | 158 | 0.0 | 1.6 | 0.00 | 0.05 | 0.00 | 84 | 1008.3 |
| 20260509133135 | 8 | 158 | 0.0 | 1.6 | 0.00 | 0.05 | 0.00 | 85 | 1008.5 |
| 20260509131644 | 7 | 148 | 1.6 | 6.4 | 0.00 | 0.05 | 0.00 | 83 | 1008.3 |
| 20260509130139 | 7 | 137 | 0.0 | 3.2 | 0.00 | 0.05 | 0.00 | 85 | 1008.3 |
| 20260509124633 | 7 | 129 | 0.0 | 1.6 | 0.00 | 0.05 | 0.00 | 85 | 1008.4 |
| 20260509123146 | 6 | 129 | 0.0 | 0.0 | 0.00 | 0.05 | 0.00 | 86 | 1008.3 |
| 20260509121631 | 6 | 129 | 0.0 | 0.0 | 0.00 | 0.05 | 0.00 | 86 | 1008.4 |
| 20260509120126 | 6 | 127 | 0.0 | 0.0 | 0.00 | 0.05 | 0.00 | 86 | 1008.6 |